Salina, KS

1:39 AM CDT on May 24, 2017 (GMT -0500)
Salina Municipal

Weather History for KSLN - December, 2010

Change the Weather History Date:

Saturday, December 11, 2010

  Actual Average Record
Temperature  
Mean Temperature 33 °F 33 °F  
Max Temperature 49 °F 43 °F 75 °F (1939)
Min Temperature 17 °F 23 °F 0 °F (1963)
Degree Days  
Heating Degree Days 32 32  
Month to date heating degree days 327 337  
Since 1 July heating degree days 1175 1289  
Cooling Degree Days 0 0  
Month to date cooling degree days 0 0  
Year to date cooling degree days 1872 1647  
Moisture  
Dew Point 15 °F    
Average Humidity 58    
Maximum Humidity 76    
Minimum Humidity 39    
Precipitation  
Precipitation T in 0.03 in 1.31 in (2007)
Month to date precipitation T 0.39  
Year to date precipitation 27.60 30.95  
Sea Level Pressure  
Sea Level Pressure 30.03 in    
Wind  
Wind Speed 26 mph (NW)    
Max Wind Speed 40 mph    
Max Gust Speed 49 mph    
Visibility 10 miles    
Events      
T = Trace of Precipitation, MM = Missing Value Source: NWS Daily Summary

Daily Weather History Graph

Daily Weather History Graph

Search for Another Location

Airport or City:

Trip Planner

Search our weather history database for the weather conditions in past years. The results will help you decide how hot, cold, wet, or windy it might be!

Date:

Astronomy

Dec. 11, 2010 Rise Set
Actual Time 7:38 AM CST 5:08 PM CST
Civil Twilight 7:08 AM CST 5:38 PM CST
Nautical Twilight 6:35 AM CST 6:12 PM CST
Astronomical Twilight 6:03 AM CST 6:44 PM CST
Moon 11:34 AM CST (12/11) 11:11 PM CST (12/11)
Length of Visible Light 10h 29m
Length of Day
9h 30m
Waxing Crescent, 33% of the Moon is Illuminated
Dec 11
Waxing Crescent
Dec 13
First Quarter
Dec 21
Full
Dec 27
Last Quarter
Jan 4
New

Hourly Weather History & Observations

Time (CST) Temp. Windchill Dew Point Humidity Pressure Visibility Wind Dir Wind Speed Gust Speed Precip Events Conditions
12:53 AM 43.0 °F 36.4 °F 36.0 °F 76% 29.74 in 9.0 mi South 12.7 mph - N/A   Overcast
1:53 AM 45.0 °F 37.6 °F 36.0 °F 71% 29.76 in 10.0 mi West 17.3 mph - N/A   Overcast
2:53 AM 48.9 °F - 33.1 °F 54% 29.77 in 10.0 mi NW 26.5 mph 34.5 mph 0.00 in   Overcast
3:53 AM 46.0 °F 39.0 °F 30.9 °F 56% 29.79 in 10.0 mi NW 17.3 mph - N/A   Partly Cloudy
4:53 AM 42.1 °F 34.5 °F 30.0 °F 62% 29.82 in 10.0 mi NW 15.0 mph - N/A   Clear
5:53 AM 41.0 °F 29.3 °F 24.8 °F 53% 29.83 in 10.0 mi WNW 33.4 mph 43.7 mph N/A   Clear
6:53 AM 34.0 °F 20.5 °F 18.0 °F 52% 29.90 in 10.0 mi NW 28.8 mph 40.3 mph N/A   Clear
7:53 AM 30.0 °F 16.6 °F 17.1 °F 59% 29.95 in 10.0 mi NW 23.0 mph 29.9 mph N/A   Clear
8:53 AM 28.9 °F 14.0 °F 15.1 °F 56% 29.98 in 10.0 mi NW 27.6 mph 35.7 mph N/A   Clear
9:53 AM 28.9 °F 14.0 °F 12.0 °F 49% 30.03 in 10.0 mi NW 27.6 mph 38.0 mph N/A   Clear
10:53 AM 28.9 °F 12.8 °F 10.0 °F 45% 30.05 in 10.0 mi NW 33.4 mph 40.3 mph N/A   Clear
11:53 AM 28.0 °F 12.3 °F 8.1 °F 43% 30.04 in 10.0 mi NW 29.9 mph 39.1 mph N/A   Clear
12:53 PM 30.0 °F 14.5 °F 8.1 °F 40% 30.03 in 10.0 mi NW 32.2 mph 43.7 mph N/A   Clear
1:53 PM 30.9 °F 16.4 °F 8.1 °F 38% 30.04 in 10.0 mi NW 28.8 mph 41.4 mph N/A   Scattered Clouds
2:53 PM 28.0 °F 11.5 °F 7.0 °F 41% 30.06 in 10.0 mi NW 33.4 mph 42.6 mph N/A   Overcast
3:53 PM 28.0 °F 12.0 °F 8.1 °F 43% 30.09 in 10.0 mi NW 31.1 mph 38.0 mph N/A   Clear
4:53 PM 26.1 °F 9.6 °F 8.1 °F 47% 30.13 in 10.0 mi NW 29.9 mph 39.1 mph N/A   Clear
5:53 PM 25.0 °F 8.4 °F 8.1 °F 49% 30.16 in 10.0 mi NW 28.8 mph 38.0 mph N/A   Clear
6:53 PM 25.0 °F 9.9 °F 8.1 °F 49% 30.19 in 10.0 mi NNW 23.0 mph 38.0 mph N/A   Overcast
7:53 PM 24.1 °F 7.7 °F 8.1 °F 51% 30.22 in 10.0 mi NW 26.5 mph 33.4 mph N/A   Mostly Cloudy
8:53 PM 21.2 °F 2.7 °F 8.6 °F 58% 30.19 in 10.0 mi NW 31.1 mph 39.1 mph N/A   Clear
9:53 PM 19.0 °F 0.6 °F 6.1 °F 57% 30.27 in 10.0 mi NNW 27.6 mph 36.8 mph N/A   Clear
10:53 PM 18.0 °F -0.5 °F 3.9 °F 54% 30.29 in 10.0 mi NW 26.5 mph 34.5 mph N/A   Clear
11:53 PM 17.1 °F 0.1 °F 3.9 °F 56% 30.33 in 10.0 mi NW 20.7 mph 34.5 mph N/A   Clear